Year,Month,Day,Hour,Minute,Value (Times are PST for temperature in C)
2014,04,28,00,00,6.80
2014,04,28,00,01,6.80
2014,04,28,00,02,6.80
2014,04,28,00,03,6.80
2014,04,28,00,04,6.80
2014,04,28,00,05,6.70
2014,04,28,00,06,6.70
2014,04,28,00,07,6.70
2014,04,28,00,08,6.70
2014,04,28,00,09,6.70
2014,04,28,00,10,6.70
2014,04,28,00,11,6.70
2014,04,28,00,12,6.70
2014,04,28,00,13,6.70
2014,04,28,00,14,6.70
2014,04,28,00,15,6.70
2014,04,28,00,16,6.70
2014,04,28,00,17,6.70
2014,04,28,00,18,6.70
2014,04,28,00,19,6.70
2014,04,28,00,20,6.70
2014,04,28,00,21,6.70
2014,04,28,00,22,6.70
2014,04,28,00,23,6.70
2014,04,28,00,24,6.70
2014,04,28,00,25,6.70
2014,04,28,00,26,6.70
2014,04,28,00,27,6.70
2014,04,28,00,28,6.80
2014,04,28,00,29,6.80
2014,04,28,00,30,6.80
2014,04,28,00,31,6.80
2014,04,28,00,32,6.80
2014,04,28,00,33,6.80
2014,04,28,00,34,6.80
2014,04,28,00,35,6.80
2014,04,28,00,36,6.80
2014,04,28,00,37,6.80
2014,04,28,00,38,6.80
2014,04,28,00,39,6.80
2014,04,28,00,40,6.80
2014,04,28,00,41,6.80
2014,04,28,00,42,6.80
2014,04,28,00,43,6.80
2014,04,28,00,44,6.80
2014,04,28,00,45,6.80
2014,04,28,00,46,6.80
2014,04,28,00,47,6.80
2014,04,28,00,48,6.80
2014,04,28,00,49,6.80
2014,04,28,00,50,6.80
2014,04,28,00,51,6.80
2014,04,28,00,52,6.80
2014,04,28,00,53,6.80
2014,04,28,00,54,6.80
2014,04,28,00,55,6.80
2014,04,28,00,56,6.80
2014,04,28,00,57,6.80
2014,04,28,00,58,6.80
2014,04,28,00,59,6.80
2014,04,28,01,00,6.80
2014,04,28,01,01,6.80
2014,04,28,01,02,6.80
2014,04,28,01,03,6.80
2014,04,28,01,04,6.80
2014,04,28,01,05,6.80
2014,04,28,01,06,6.80
2014,04,28,01,07,6.80
2014,04,28,01,08,6.80
2014,04,28,01,09,6.80
2014,04,28,01,10,6.80
2014,04,28,01,11,6.80
2014,04,28,01,12,6.80
2014,04,28,01,13,6.80
2014,04,28,01,14,6.80
2014,04,28,01,15,6.80
2014,04,28,01,16,6.80
2014,04,28,01,17,6.80
2014,04,28,01,18,6.80
2014,04,28,01,19,6.80
2014,04,28,01,20,6.80
2014,04,28,01,21,6.80
2014,04,28,01,22,6.80
2014,04,28,01,23,6.80
2014,04,28,01,24,6.80
2014,04,28,01,25,6.80
2014,04,28,01,26,6.80
2014,04,28,01,27,6.80
2014,04,28,01,28,6.80
2014,04,28,01,29,6.80
2014,04,28,01,30,6.80
2014,04,28,01,31,6.80
2014,04,28,01,32,6.80
2014,04,28,01,33,6.80
2014,04,28,01,34,6.80
2014,04,28,01,35,6.80
2014,04,28,01,36,6.80
2014,04,28,01,37,6.80
2014,04,28,01,38,6.80
2014,04,28,01,39,6.80
2014,04,28,01,40,6.80
2014,04,28,01,41,6.80
2014,04,28,01,42,6.80
2014,04,28,01,43,6.80
2014,04,28,01,44,6.80
2014,04,28,01,45,6.80
2014,04,28,01,46,6.80
2014,04,28,01,47,6.70
2014,04,28,01,48,6.70
2014,04,28,01,49,6.70
2014,04,28,01,50,6.70
2014,04,28,01,51,6.70
2014,04,28,01,52,6.70
2014,04,28,01,53,6.70
2014,04,28,01,54,6.70
2014,04,28,01,55,6.70
2014,04,28,01,56,6.70
2014,04,28,01,57,6.70
2014,04,28,01,58,6.70
2014,04,28,01,59,6.70
2014,04,28,02,00,6.70
2014,04,28,02,01,6.60
2014,04,28,02,02,6.60
2014,04,28,02,03,6.60
2014,04,28,02,04,6.60
2014,04,28,02,05,6.60
2014,04,28,02,06,6.60
2014,04,28,02,07,6.60
2014,04,28,02,08,6.60
2014,04,28,02,09,6.60
2014,04,28,02,10,6.60
2014,04,28,02,11,6.60
2014,04,28,02,12,6.60
2014,04,28,02,13,6.60
2014,04,28,02,14,6.60
2014,04,28,02,15,6.60
2014,04,28,02,16,6.60
2014,04,28,02,17,6.60
2014,04,28,02,18,6.60
2014,04,28,02,19,6.60
2014,04,28,02,20,6.60
2014,04,28,02,21,6.50
2014,04,28,02,22,6.40
2014,04,28,02,23,6.40
2014,04,28,02,24,6.40
2014,04,28,02,25,6.40
2014,04,28,02,26,6.40
2014,04,28,02,27,6.40
2014,04,28,02,28,6.40
2014,04,28,02,29,6.40
2014,04,28,02,30,6.40
2014,04,28,02,31,6.40
2014,04,28,02,32,6.40
2014,04,28,02,33,6.40
2014,04,28,02,34,6.40
2014,04,28,02,35,6.40
2014,04,28,02,36,6.40
2014,04,28,02,37,6.40
2014,04,28,02,38,6.40
2014,04,28,02,39,6.40
2014,04,28,02,40,6.40
2014,04,28,02,41,6.40
2014,04,28,02,42,6.40
2014,04,28,02,43,6.40
2014,04,28,02,44,6.40
2014,04,28,02,45,6.40
2014,04,28,02,46,6.40
2014,04,28,02,47,6.40
2014,04,28,02,48,6.40
2014,04,28,02,49,6.40
2014,04,28,02,50,6.40
2014,04,28,02,51,6.40
2014,04,28,02,52,6.40
2014,04,28,02,53,6.40
2014,04,28,02,54,6.60
2014,04,28,02,55,6.60
2014,04,28,02,56,6.60
2014,04,28,02,57,6.60
2014,04,28,02,58,6.60
2014,04,28,02,59,6.60
2014,04,28,03,00,6.60
2014,04,28,03,01,6.60
2014,04,28,03,02,6.60
2014,04,28,03,03,6.60
2014,04,28,03,04,6.60
2014,04,28,03,05,6.60
2014,04,28,03,06,6.60
2014,04,28,03,07,6.60
2014,04,28,03,08,6.60
2014,04,28,03,09,6.60
2014,04,28,03,10,6.60
2014,04,28,03,11,6.60
2014,04,28,03,12,6.60
2014,04,28,03,13,6.60
2014,04,28,03,14,6.60
2014,04,28,03,15,6.60
2014,04,28,03,16,6.60
2014,04,28,03,17,6.60
2014,04,28,03,18,6.60
2014,04,28,03,19,6.60
2014,04,28,03,20,6.60
2014,04,28,03,21,6.60
2014,04,28,03,22,6.60
2014,04,28,03,23,6.60
2014,04,28,03,24,6.60
2014,04,28,03,25,6.60
2014,04,28,03,26,6.60
2014,04,28,03,27,6.70
2014,04,28,03,28,6.70
2014,04,28,03,29,6.70
2014,04,28,03,30,6.70
2014,04,28,03,31,6.70
2014,04,28,03,32,6.70
2014,04,28,03,33,6.70
2014,04,28,03,34,6.70
2014,04,28,03,35,6.70
2014,04,28,03,36,6.60
2014,04,28,03,37,6.60
2014,04,28,03,38,6.60
2014,04,28,03,39,6.60
2014,04,28,03,40,6.60
2014,04,28,03,41,6.60
2014,04,28,03,42,6.60
2014,04,28,03,43,6.60
2014,04,28,03,44,6.60
2014,04,28,03,45,6.60
2014,04,28,03,46,6.60
2014,04,28,03,47,6.60
2014,04,28,03,48,6.60
2014,04,28,03,49,6.60
2014,04,28,03,50,6.60
2014,04,28,03,51,6.60
2014,04,28,03,52,6.60
2014,04,28,03,53,6.60
2014,04,28,03,54,6.60
2014,04,28,03,55,6.60
2014,04,28,03,56,6.60
2014,04,28,03,57,6.60
2014,04,28,03,58,6.60
2014,04,28,03,59,6.60
2014,04,28,04,00,6.60
2014,04,28,04,01,6.50
2014,04,28,04,02,6.40
2014,04,28,04,03,6.40
2014,04,28,04,04,6.40
2014,04,28,04,05,6.40
2014,04,28,04,06,6.40
2014,04,28,04,07,6.40
2014,04,28,04,08,6.40
2014,04,28,04,09,6.40
2014,04,28,04,10,6.40
2014,04,28,04,11,6.40
2014,04,28,04,12,6.40
2014,04,28,04,13,6.40
2014,04,28,04,14,6.40
2014,04,28,04,15,6.40
2014,04,28,04,16,6.40
2014,04,28,04,17,6.40
2014,04,28,04,18,6.40
2014,04,28,04,19,6.40
2014,04,28,04,20,6.40
2014,04,28,04,21,6.40
2014,04,28,04,22,6.30
2014,04,28,04,23,6.30
2014,04,28,04,24,6.30
2014,04,28,04,25,6.30
2014,04,28,04,26,6.30
2014,04,28,04,27,6.20
2014,04,28,04,28,6.20
2014,04,28,04,29,6.20
2014,04,28,04,30,6.20
2014,04,28,04,31,6.20
2014,04,28,04,32,6.20
2014,04,28,04,33,6.10
2014,04,28,04,34,6.10
2014,04,28,04,35,6.10
2014,04,28,04,36,6.10
2014,04,28,04,37,6.10
2014,04,28,04,38,6.00
2014,04,28,04,39,6.00
2014,04,28,04,40,6.00
2014,04,28,04,41,6.00
2014,04,28,04,42,6.00
2014,04,28,04,43,6.00
2014,04,28,04,44,5.90
2014,04,28,04,45,5.90
2014,04,28,04,46,5.90
2014,04,28,04,47,5.90
2014,04,28,04,48,5.90
2014,04,28,04,49,5.90
2014,04,28,04,50,5.90
2014,04,28,04,51,5.90
2014,04,28,04,52,5.90
2014,04,28,04,53,5.90
2014,04,28,04,54,5.90
2014,04,28,04,55,5.90
2014,04,28,04,56,5.90
2014,04,28,04,57,5.80
2014,04,28,04,58,5.80
2014,04,28,04,59,5.80
2014,04,28,05,00,5.90
2014,04,28,05,01,5.90
2014,04,28,05,02,5.90
2014,04,28,05,03,5.80
2014,04,28,05,04,5.80
2014,04,28,05,05,5.80
2014,04,28,05,06,5.80
2014,04,28,05,07,5.90
2014,04,28,05,08,5.90
2014,04,28,05,09,5.90
2014,04,28,05,10,5.90
2014,04,28,05,11,5.90
2014,04,28,05,12,5.90
2014,04,28,05,13,5.90
2014,04,28,05,14,5.90
2014,04,28,05,15,6.00
2014,04,28,05,16,6.00
2014,04,28,05,17,6.00
2014,04,28,05,18,6.00
2014,04,28,05,19,6.00
2014,04,28,05,20,6.00
2014,04,28,05,21,6.00
2014,04,28,05,22,6.00
2014,04,28,05,23,6.00
2014,04,28,05,24,6.00
2014,04,28,05,25,6.00
2014,04,28,05,26,5.90
2014,04,28,05,27,5.90
2014,04,28,05,28,5.90
2014,04,28,05,29,5.90
2014,04,28,05,30,5.90
2014,04,28,05,31,5.90
2014,04,28,05,32,5.90
2014,04,28,05,33,6.00
2014,04,28,05,34,6.00
2014,04,28,05,35,6.00
2014,04,28,05,36,6.00
2014,04,28,05,37,6.00
2014,04,28,05,38,6.00
2014,04,28,05,39,6.00
2014,04,28,05,40,6.00
2014,04,28,05,41,6.00
2014,04,28,05,42,6.00
2014,04,28,05,43,6.00
2014,04,28,05,44,6.00
2014,04,28,05,45,6.00
2014,04,28,05,46,6.00
2014,04,28,05,47,6.00
2014,04,28,05,48,6.00
2014,04,28,05,49,6.00
2014,04,28,05,50,6.00
2014,04,28,05,51,6.00
2014,04,28,05,52,6.00
2014,04,28,05,53,6.00
2014,04,28,05,54,6.00
2014,04,28,05,55,5.90
2014,04,28,05,56,5.90
2014,04,28,05,57,5.90
2014,04,28,05,58,5.90
2014,04,28,05,59,5.80
2014,04,28,06,00,5.80
2014,04,28,06,01,5.80
2014,04,28,06,02,5.80
2014,04,28,06,03,5.80
2014,04,28,06,04,5.80
2014,04,28,06,05,5.70
2014,04,28,06,06,5.70
2014,04,28,06,07,5.70
2014,04,28,06,08,5.80
2014,04,28,06,09,5.70
2014,04,28,06,10,5.70
2014,04,28,06,11,5.70
2014,04,28,06,12,5.70
2014,04,28,06,13,5.70
2014,04,28,06,14,5.70
2014,04,28,06,15,5.70
2014,04,28,06,16,5.70
2014,04,28,06,17,5.70
2014,04,28,06,18,5.70
2014,04,28,06,19,5.70
2014,04,28,06,20,5.70
2014,04,28,06,21,5.70
2014,04,28,06,22,5.70
2014,04,28,06,23,5.70
2014,04,28,06,24,5.70
2014,04,28,06,25,5.70
2014,04,28,06,26,5.70
2014,04,28,06,27,5.70
2014,04,28,06,28,5.70
2014,04,28,06,29,5.60
2014,04,28,06,30,5.60
2014,04,28,06,31,5.70
2014,04,28,06,32,5.70
2014,04,28,06,33,5.70
2014,04,28,06,34,5.70
2014,04,28,06,35,5.80
2014,04,28,06,36,5.80
2014,04,28,06,37,5.80
2014,04,28,06,38,5.90
2014,04,28,06,39,6.00
2014,04,28,06,40,6.00
2014,04,28,06,41,6.10
2014,04,28,06,42,6.10
2014,04,28,06,43,6.10
2014,04,28,06,44,6.10
2014,04,28,06,45,6.10
2014,04,28,06,46,6.10
2014,04,28,06,47,6.10
2014,04,28,06,48,6.10
2014,04,28,06,49,6.10
2014,04,28,06,50,6.10
2014,04,28,06,51,6.10
2014,04,28,06,52,6.00
2014,04,28,06,53,6.00
2014,04,28,06,54,6.10
2014,04,28,06,55,6.10
2014,04,28,06,56,6.10
2014,04,28,06,57,6.20
2014,04,28,06,58,6.20
2014,04,28,06,59,6.20
2014,04,28,07,00,6.30
2014,04,28,07,01,6.30
2014,04,28,07,02,6.40
2014,04,28,07,03,6.40
2014,04,28,07,04,6.50
2014,04,28,07,05,6.60
2014,04,28,07,06,6.60
2014,04,28,07,07,6.60
2014,04,28,07,08,6.70
2014,04,28,07,09,6.80
2014,04,28,07,10,6.80
2014,04,28,07,11,7.00
2014,04,28,07,12,7.00
2014,04,28,07,13,7.10
2014,04,28,07,14,7.20
2014,04,28,07,15,7.40
2014,04,28,07,16,7.50
2014,04,28,07,17,7.60
2014,04,28,07,18,7.70
2014,04,28,07,19,7.80
2014,04,28,07,20,7.90
2014,04,28,07,21,8.00
2014,04,28,07,22,8.10
2014,04,28,07,23,8.20
2014,04,28,07,24,8.20
2014,04,28,07,25,8.30
2014,04,28,07,26,8.30
2014,04,28,07,27,8.30
2014,04,28,07,28,8.20
2014,04,28,07,29,8.30
2014,04,28,07,30,8.30
2014,04,28,07,31,8.30
2014,04,28,07,32,8.20
2014,04,28,07,33,8.20
2014,04,28,07,34,8.20
2014,04,28,07,35,8.20
2014,04,28,07,36,8.20
2014,04,28,07,37,8.20
2014,04,28,07,38,8.20
2014,04,28,07,39,8.20
2014,04,28,07,40,8.20
2014,04,28,07,41,8.20
2014,04,28,07,42,8.20
2014,04,28,07,43,8.20
2014,04,28,07,44,8.20
2014,04,28,07,45,8.20
2014,04,28,07,46,8.20
2014,04,28,07,47,8.30
2014,04,28,07,48,8.30
2014,04,28,07,49,8.40
2014,04,28,07,50,8.40
2014,04,28,07,51,8.50
2014,04,28,07,52,8.50
2014,04,28,07,53,8.60
2014,04,28,07,54,8.70
2014,04,28,07,55,8.70
2014,04,28,07,56,8.70
2014,04,28,07,57,8.70
2014,04,28,07,58,8.70
2014,04,28,07,59,8.60
2014,04,28,08,00,8.50
2014,04,28,08,01,8.50
2014,04,28,08,02,8.40
2014,04,28,08,03,8.40
2014,04,28,08,04,8.40
2014,04,28,08,05,8.40
2014,04,28,08,06,8.40
2014,04,28,08,07,8.50
2014,04,28,08,08,8.50
2014,04,28,08,09,8.60
2014,04,28,08,10,8.70
2014,04,28,08,11,8.70
2014,04,28,08,12,8.70
2014,04,28,08,13,8.70
2014,04,28,08,14,8.70
2014,04,28,08,15,8.70
2014,04,28,08,16,8.70
2014,04,28,08,17,8.80
2014,04,28,08,18,8.80
2014,04,28,08,19,8.70
2014,04,28,08,20,8.70
2014,04,28,08,21,8.70
2014,04,28,08,22,8.80
2014,04,28,08,23,8.80
2014,04,28,08,24,8.80
2014,04,28,08,25,8.80
2014,04,28,08,26,8.90
2014,04,28,08,27,9.00
2014,04,28,08,28,9.00
2014,04,28,08,29,9.00
2014,04,28,08,30,9.10
2014,04,28,08,31,9.20
2014,04,28,08,32,9.20
2014,04,28,08,33,9.20
2014,04,28,08,34,9.30
2014,04,28,08,35,9.30
2014,04,28,08,36,9.30
2014,04,28,08,37,9.30
2014,04,28,08,38,9.40
2014,04,28,08,39,9.30
2014,04,28,08,40,9.20
2014,04,28,08,41,9.10
2014,04,28,08,42,9.00
2014,04,28,08,43,8.90
2014,04,28,08,44,8.90
2014,04,28,08,45,8.80
2014,04,28,08,46,8.90
2014,04,28,08,47,8.90
2014,04,28,08,48,8.90
2014,04,28,08,49,9.00
2014,04,28,08,50,9.00
2014,04,28,08,51,9.10
2014,04,28,08,52,9.10
2014,04,28,08,53,9.10
2014,04,28,08,54,9.20
2014,04,28,08,55,9.20
2014,04,28,08,56,9.20
2014,04,28,08,57,9.20
2014,04,28,08,58,9.20
2014,04,28,08,59,9.30
2014,04,28,09,00,9.30
2014,04,28,09,01,9.30
2014,04,28,09,02,9.30
2014,04,28,09,03,9.40
2014,04,28,09,04,9.40
2014,04,28,09,05,9.50
2014,04,28,09,06,9.50
2014,04,28,09,07,9.70
2014,04,28,09,08,9.70
2014,04,28,09,09,9.80
2014,04,28,09,10,9.90
2014,04,28,09,11,10.10
2014,04,28,09,12,10.20
2014,04,28,09,13,10.30
2014,04,28,09,14,10.40
2014,04,28,09,15,10.50
2014,04,28,09,16,10.60
2014,04,28,09,17,10.60
2014,04,28,09,18,10.60
2014,04,28,09,19,10.60
2014,04,28,09,20,10.60
2014,04,28,09,21,10.60
2014,04,28,09,22,10.60
2014,04,28,09,23,10.60
2014,04,28,09,24,10.60
2014,04,28,09,25,10.60
2014,04,28,09,26,10.40
2014,04,28,09,27,10.30
2014,04,28,09,28,10.20
2014,04,28,09,29,10.20
2014,04,28,09,30,10.30
2014,04,28,09,31,10.40
2014,04,28,09,32,10.50
2014,04,28,09,33,10.60
2014,04,28,09,34,10.60
2014,04,28,09,35,10.70
2014,04,28,09,36,10.70
2014,04,28,09,37,10.60
2014,04,28,09,38,10.50
2014,04,28,09,39,10.40
2014,04,28,09,40,10.30
2014,04,28,09,41,10.20
2014,04,28,09,42,10.10
2014,04,28,09,43,10.10
2014,04,28,09,44,10.10
2014,04,28,09,45,10.10
2014,04,28,09,46,10.10
2014,04,28,09,47,10.10
2014,04,28,09,48,10.10
2014,04,28,09,49,10.10
2014,04,28,09,50,10.10
2014,04,28,09,51,10.10
2014,04,28,09,52,10.20
2014,04,28,09,53,10.30
2014,04,28,09,54,10.40
2014,04,28,09,55,10.40
2014,04,28,09,56,10.40
2014,04,28,09,57,10.40
2014,04,28,09,58,10.40
2014,04,28,09,59,10.40
2014,04,28,10,00,10.40
2014,04,28,10,01,10.50
2014,04,28,10,02,10.60
2014,04,28,10,03,10.60
2014,04,28,10,04,10.60
2014,04,28,10,05,10.50
2014,04,28,10,06,10.40
2014,04,28,10,07,10.30
2014,04,28,10,08,10.20
2014,04,28,10,09,10.20
2014,04,28,10,10,10.20
2014,04,28,10,11,10.30
2014,04,28,10,12,10.40
2014,04,28,10,13,10.50
2014,04,28,10,14,10.60
2014,04,28,10,15,10.70
2014,04,28,10,16,10.70
2014,04,28,10,17,10.80
2014,04,28,10,18,10.80
2014,04,28,10,19,10.80
2014,04,28,10,20,10.80
2014,04,28,10,21,10.80
2014,04,28,10,22,10.90
2014,04,28,10,23,11.00
2014,04,28,10,24,11.10
2014,04,28,10,25,11.20
2014,04,28,10,26,11.30
2014,04,28,10,27,11.40
2014,04,28,10,28,11.40
2014,04,28,10,29,11.40
2014,04,28,10,30,11.50
2014,04,28,10,31,11.60
2014,04,28,10,32,11.70
2014,04,28,10,33,11.80
2014,04,28,10,34,11.90
2014,04,28,10,35,12.00
2014,04,28,10,36,12.00
2014,04,28,10,37,11.90
2014,04,28,10,38,11.90
2014,04,28,10,39,11.90
2014,04,28,10,40,11.90
2014,04,28,10,41,11.90
2014,04,28,10,42,12.00
2014,04,28,10,43,12.10
2014,04,28,10,44,12.10
2014,04,28,10,45,12.10
2014,04,28,10,46,12.10
2014,04,28,10,47,12.10
2014,04,28,10,48,12.10
2014,04,28,10,49,12.10
2014,04,28,10,50,12.00
2014,04,28,10,51,11.80
2014,04,28,10,52,11.80
2014,04,28,10,53,11.80
2014,04,28,10,54,11.80
2014,04,28,10,55,11.80
2014,04,28,10,56,11.90
2014,04,28,10,57,12.00
2014,04,28,10,58,12.00
2014,04,28,10,59,12.00
2014,04,28,11,00,12.00
2014,04,28,11,01,12.00
2014,04,28,11,02,12.00
2014,04,28,11,03,12.00
2014,04,28,11,04,12.10
2014,04,28,11,05,12.00
2014,04,28,11,06,11.90
2014,04,28,11,07,11.80
2014,04,28,11,08,11.80
2014,04,28,11,09,11.80
2014,04,28,11,10,11.80
2014,04,28,11,11,11.90
2014,04,28,11,12,12.00
2014,04,28,11,13,12.10
2014,04,28,11,14,12.00
2014,04,28,11,15,12.10
2014,04,28,11,16,12.00
2014,04,28,11,17,12.00
2014,04,28,11,18,11.90
2014,04,28,11,19,11.90
2014,04,28,11,20,12.00
2014,04,28,11,21,12.00
2014,04,28,11,22,12.00
2014,04,28,11,23,12.00
2014,04,28,11,24,11.90
2014,04,28,11,25,11.90
2014,04,28,11,26,12.00
2014,04,28,11,27,12.10
2014,04,28,11,28,12.20
2014,04,28,11,29,12.30
2014,04,28,11,30,12.30
2014,04,28,11,31,12.20
2014,04,28,11,32,12.10
2014,04,28,11,33,12.20
2014,04,28,11,34,12.20
2014,04,28,11,35,12.20
2014,04,28,11,36,12.20
2014,04,28,11,37,12.20
2014,04,28,11,38,12.10
2014,04,28,11,39,12.10
2014,04,28,11,40,12.20
2014,04,28,11,41,12.20
2014,04,28,11,42,12.30
2014,04,28,11,43,12.30
2014,04,28,11,44,12.30
2014,04,28,11,45,12.30
2014,04,28,11,46,12.40
2014,04,28,11,47,12.40
2014,04,28,11,48,12.40
2014,04,28,11,49,12.40
2014,04,28,11,50,12.50
2014,04,28,11,51,12.60
2014,04,28,11,52,12.70
2014,04,28,11,53,12.80
2014,04,28,11,54,12.80
2014,04,28,11,55,12.80
2014,04,28,11,56,12.80
2014,04,28,11,57,12.80
2014,04,28,11,58,12.80
2014,04,28,11,59,12.90
2014,04,28,12,00,12.90
2014,04,28,12,01,13.00
2014,04,28,12,02,12.90
2014,04,28,12,03,12.80
2014,04,28,12,04,12.60
2014,04,28,12,05,12.50
2014,04,28,12,06,12.30
2014,04,28,12,07,12.30
2014,04,28,12,08,12.30
2014,04,28,12,09,12.30
2014,04,28,12,10,12.30
2014,04,28,12,11,12.30
2014,04,28,12,12,12.30
2014,04,28,12,13,12.30
2014,04,28,12,14,12.40
2014,04,28,12,15,12.50
2014,04,28,12,16,12.50
2014,04,28,12,17,12.50
2014,04,28,12,18,12.50
2014,04,28,12,19,12.60
2014,04,28,12,20,12.40
2014,04,28,12,21,12.40
2014,04,28,12,22,12.30
2014,04,28,12,23,12.40
2014,04,28,12,24,12.50
2014,04,28,12,25,12.50
2014,04,28,12,26,12.40
2014,04,28,12,27,12.40
2014,04,28,12,28,12.40
2014,04,28,12,29,12.40
2014,04,28,12,30,12.40
2014,04,28,12,31,12.50
2014,04,28,12,32,12.50
2014,04,28,12,33,12.40
2014,04,28,12,34,12.40
2014,04,28,12,35,12.50
2014,04,28,12,36,12.60
2014,04,28,12,37,12.70
2014,04,28,12,38,12.70
2014,04,28,12,39,12.50
2014,04,28,12,40,12.50
2014,04,28,12,41,12.50
2014,04,28,12,42,12.50
2014,04,28,12,43,12.60
2014,04,28,12,44,12.80
2014,04,28,12,45,12.80
2014,04,28,12,46,12.80
2014,04,28,12,47,12.80
2014,04,28,12,48,12.70
2014,04,28,12,49,12.70
2014,04,28,12,50,12.60
2014,04,28,12,51,12.70
2014,04,28,12,52,12.60
2014,04,28,12,53,12.60
2014,04,28,12,54,12.50
2014,04,28,12,55,12.50
2014,04,28,12,56,12.50
2014,04,28,12,57,12.50
2014,04,28,12,58,12.50
2014,04,28,12,59,12.60
2014,04,28,13,00,12.80
2014,04,28,13,01,12.90
2014,04,28,13,02,13.00
2014,04,28,13,03,13.10
2014,04,28,13,04,13.20
2014,04,28,13,05,13.10
2014,04,28,13,06,13.10
2014,04,28,13,07,13.10
2014,04,28,13,08,13.00
2014,04,28,13,09,12.90
2014,04,28,13,10,12.90
2014,04,28,13,11,13.10
2014,04,28,13,12,13.20
2014,04,28,13,13,13.30
2014,04,28,13,14,13.40
2014,04,28,13,15,13.50
2014,04,28,13,16,13.60
2014,04,28,13,17,13.60
2014,04,28,13,18,13.50
2014,04,28,13,19,13.60
2014,04,28,13,20,13.70
2014,04,28,13,21,13.70
2014,04,28,13,22,13.70
2014,04,28,13,23,13.70
2014,04,28,13,24,13.70
2014,04,28,13,25,13.50
2014,04,28,13,26,13.20
2014,04,28,13,27,13.20
2014,04,28,13,28,13.20
2014,04,28,13,29,13.30
2014,04,28,13,30,13.30
2014,04,28,13,31,13.30
2014,04,28,13,32,13.20
2014,04,28,13,33,13.30
2014,04,28,13,34,13.30
2014,04,28,13,35,13.30
2014,04,28,13,36,13.30
2014,04,28,13,37,13.50
2014,04,28,13,38,13.70
2014,04,28,13,39,13.70
2014,04,28,13,40,13.60
2014,04,28,13,41,13.50
2014,04,28,13,42,13.40
2014,04,28,13,43,13.30
2014,04,28,13,44,13.30
2014,04,28,13,45,13.20
2014,04,28,13,46,13.10
2014,04,28,13,47,13.10
2014,04,28,13,48,13.20
2014,04,28,13,49,13.20
2014,04,28,13,50,13.40
2014,04,28,13,51,13.40
2014,04,28,13,52,13.30
2014,04,28,13,53,13.40
2014,04,28,13,54,13.50
2014,04,28,13,55,13.60
2014,04,28,13,56,13.60
2014,04,28,13,57,13.60
2014,04,28,13,58,13.70
2014,04,28,13,59,13.80
2014,04,28,14,00,13.90
2014,04,28,14,01,13.80
2014,04,28,14,02,13.90
2014,04,28,14,03,14.00
2014,04,28,14,04,14.10
2014,04,28,14,05,14.20
2014,04,28,14,06,14.20
2014,04,28,14,07,14.20
2014,04,28,14,08,14.30
2014,04,28,14,09,14.20
2014,04,28,14,10,14.20
2014,04,28,14,11,14.20
2014,04,28,14,12,14.20
2014,04,28,14,13,14.10
2014,04,28,14,14,14.10
2014,04,28,14,15,14.00
2014,04,28,14,16,14.00
2014,04,28,14,17,14.00
2014,04,28,14,18,14.00
2014,04,28,14,19,14.00
2014,04,28,14,20,14.00
2014,04,28,14,21,14.00
2014,04,28,14,22,14.00
2014,04,28,14,23,14.10
2014,04,28,14,24,14.00
2014,04,28,14,25,14.00
2014,04,28,14,26,14.00
2014,04,28,14,27,14.00
2014,04,28,14,28,14.00
2014,04,28,14,29,14.10
2014,04,28,14,30,14.10
2014,04,28,14,31,14.20
2014,04,28,14,32,14.20
2014,04,28,14,33,14.00
2014,04,28,14,34,14.00
2014,04,28,14,35,14.00
2014,04,28,14,36,14.00
2014,04,28,14,37,14.00
2014,04,28,14,38,14.00
2014,04,28,14,39,14.00
2014,04,28,14,40,14.00
2014,04,28,14,41,14.00
2014,04,28,14,42,13.80
2014,04,28,14,43,13.90
2014,04,28,14,44,14.00
2014,04,28,14,45,14.10
2014,04,28,14,46,14.10
2014,04,28,14,47,14.10
2014,04,28,14,48,14.10
2014,04,28,14,49,14.10
2014,04,28,14,50,14.00
2014,04,28,14,51,13.90
2014,04,28,14,52,13.90
2014,04,28,14,53,13.90
2014,04,28,14,54,13.80
2014,04,28,14,55,13.80
2014,04,28,14,56,13.80
2014,04,28,14,57,13.80
2014,04,28,14,58,13.80
2014,04,28,14,59,13.90
2014,04,28,15,00,14.00
2014,04,28,15,01,14.10
2014,04,28,15,02,14.20
2014,04,28,15,03,14.30
2014,04,28,15,04,14.20
2014,04,28,15,05,14.20
2014,04,28,15,06,14.20
2014,04,28,15,07,14.20
2014,04,28,15,08,14.20
2014,04,28,15,09,14.20
2014,04,28,15,10,14.30
2014,04,28,15,11,14.30
2014,04,28,15,12,14.20
2014,04,28,15,13,14.20
2014,04,28,15,14,14.10
2014,04,28,15,15,14.10
2014,04,28,15,16,14.00
2014,04,28,15,17,13.90
2014,04,28,15,18,13.80
2014,04,28,15,19,13.80
2014,04,28,15,20,13.80
2014,04,28,15,21,13.80
2014,04,28,15,22,13.90
2014,04,28,15,23,13.90
2014,04,28,15,24,13.80
2014,04,28,15,25,13.80
2014,04,28,15,26,13.90
2014,04,28,15,27,14.00
2014,04,28,15,28,14.10
2014,04,28,15,29,14.30
2014,04,28,15,30,14.40
2014,04,28,15,31,14.40
2014,04,28,15,32,14.40
2014,04,28,15,33,14.40
2014,04,28,15,34,14.40
2014,04,28,15,35,14.40
2014,04,28,15,36,14.50
2014,04,28,15,37,14.50
2014,04,28,15,38,14.50
2014,04,28,15,39,14.50
2014,04,28,15,40,14.50
2014,04,28,15,41,14.50
2014,04,28,15,42,14.50
2014,04,28,15,43,14.50
2014,04,28,15,44,14.50
2014,04,28,15,45,14.40
2014,04,28,15,46,14.20
2014,04,28,15,47,14.20
2014,04,28,15,48,14.20
2014,04,28,15,49,14.20
2014,04,28,15,50,14.20
2014,04,28,15,51,14.20
2014,04,28,15,52,14.30
2014,04,28,15,53,14.50
2014,04,28,15,54,14.50
2014,04,28,15,55,14.50
2014,04,28,15,56,14.50
2014,04,28,15,57,14.50
2014,04,28,15,58,14.50
2014,04,28,15,59,14.40
2014,04,28,16,00,14.30
2014,04,28,16,01,14.30
2014,04,28,16,02,14.30
2014,04,28,16,03,14.30
2014,04,28,16,04,14.50
2014,04,28,16,05,14.60
2014,04,28,16,06,14.70
2014,04,28,16,07,14.70
2014,04,28,16,08,14.70
2014,04,28,16,09,14.80
2014,04,28,16,10,15.00
2014,04,28,16,11,15.00
2014,04,28,16,12,15.00
2014,04,28,16,13,14.90
2014,04,28,16,14,14.90
2014,04,28,16,15,14.80
2014,04,28,16,16,14.70
2014,04,28,16,17,14.60
2014,04,28,16,18,14.70
2014,04,28,16,19,14.70
2014,04,28,16,20,14.70
2014,04,28,16,21,14.70
2014,04,28,16,22,14.70
2014,04,28,16,23,14.80
2014,04,28,16,24,14.80
2014,04,28,16,25,14.90
2014,04,28,16,26,15.00
2014,04,28,16,27,15.10
2014,04,28,16,28,15.30
2014,04,28,16,29,15.30
2014,04,28,16,30,15.30
2014,04,28,16,31,15.20
2014,04,28,16,32,15.10
2014,04,28,16,33,15.10
2014,04,28,16,34,15.20
2014,04,28,16,35,15.10
2014,04,28,16,36,15.10
2014,04,28,16,37,15.00
2014,04,28,16,38,15.00
2014,04,28,16,39,15.00
2014,04,28,16,40,15.10
2014,04,28,16,41,15.10
2014,04,28,16,42,15.00
2014,04,28,16,43,15.00
2014,04,28,16,44,15.00
2014,04,28,16,45,14.90
2014,04,28,16,46,14.80
2014,04,28,16,47,14.80
2014,04,28,16,48,14.80
2014,04,28,16,49,14.70
2014,04,28,16,50,14.60
2014,04,28,16,51,14.50
2014,04,28,16,52,14.50
2014,04,28,16,53,14.50
2014,04,28,16,54,14.60
2014,04,28,16,55,14.60
2014,04,28,16,56,14.60
2014,04,28,16,57,14.60
2014,04,28,16,58,14.60
2014,04,28,16,59,14.60
2014,04,28,17,00,14.50
2014,04,28,17,01,14.40
2014,04,28,17,02,14.50
2014,04,28,17,03,14.50
2014,04,28,17,04,14.50
2014,04,28,17,05,14.60
2014,04,28,17,06,14.60
2014,04,28,17,07,14.70
2014,04,28,17,08,14.70
2014,04,28,17,09,14.60
2014,04,28,17,10,14.60
2014,04,28,17,11,14.60
2014,04,28,17,12,14.50
2014,04,28,17,13,14.60
2014,04,28,17,14,14.60
2014,04,28,17,15,14.60
2014,04,28,17,16,14.50
2014,04,28,17,17,14.50
2014,04,28,17,18,14.40
2014,04,28,17,19,14.50
2014,04,28,17,20,14.60
2014,04,28,17,21,14.70
2014,04,28,17,22,14.70
2014,04,28,17,23,14.60
2014,04,28,17,24,14.60
2014,04,28,17,25,14.70
2014,04,28,17,26,14.80
2014,04,28,17,27,14.80
2014,04,28,17,28,14.80
2014,04,28,17,29,14.70
2014,04,28,17,30,14.70
2014,04,28,17,31,14.60
2014,04,28,17,32,14.60
2014,04,28,17,33,14.50
2014,04,28,17,34,14.40
2014,04,28,17,35,14.30
2014,04,28,17,36,14.20
2014,04,28,17,37,14.30
2014,04,28,17,38,14.30
2014,04,28,17,39,14.40
2014,04,28,17,40,14.50
2014,04,28,17,41,14.40
2014,04,28,17,42,14.20
2014,04,28,17,43,14.10